Vorticity
16 11 22 34 -8 25 29 25 28 23 8 3 47 35 15 19 -8 1 -12 -55 41 23 -2 3 5 3 5 3 14 5 5 -0 5 2 3 4 2 4 7 4 0 2 0
9 3 37 11 -5 24 34 24 51 26 31 20 -6 48 46 16 18 12 -17 -14 4 43 16 8 -0 4 6 4 9 8 7 2 -6 4 -1 4 6 -4 4 5 1 1 4
9 14 12 38 25 -11 13 68 -14 46 36 18 26 15 44 63 21 -10 -11 39 29 -9 44 11 12 5 7 5 6 9 6 5 6 3 5 8 10 7 2 -2 -1 0 3
11 16 -4 25 34 27 22 2 16 7 19 27 2 14 18 53 20 5 -6 8 15 1 57 -9 4 10 5 6 5 9 9 6 3 7 2 4 3 8 0 3 2 -0 5
9 11 5 0 43 38 6 27 -5 6 8 1 16 17 60 31 44 21 19 -28 -16 -23 28 39 15 7 2 12 3 6 8 7 5 5 6 3 9 5 2 2 2 0 2
22 15 18 -3 4 40 39 13 48 4 4 10 -3 43 56 18 17 24 3 12 51 28 30 -16 54 22 11 21 -5 -1 10 6 9 7 2 -3 11 6 3 1 6 -2 5
15 19 16 10 5 11 22 58 28 15 28 15 39 -19 -38 41 38 20 13 -6 -10 0 4 22 24 8 41 59 2 3 15 2 6 11 4 0 -6 10 4 8 2 0 4
8 11 16 28 -3 9 23 17 23 52 38 59 62 34 19 5 30 6 7 4 13 6 21 23 15 24 59 38 -8 -8 0 -1 11 3 10 10 4 5 6 1 9 10 4
6 7 9 14 31 1 11 24 15 14 11 30 35 13 -0 22 24 19 19 8 -7 5 -12 25 22 52 25 -15 32 -13 72 3 1 9 12 9 13 8 13 19 7 7 7
9 9 10 11 15 30 5 5 14 15 27 6 23 7 10 34 31 10 6 59 2 21 9 -1 -12 5 39 41 10 39 -0 -9 2 13 3 1 2 8 10 7 15 12 12
12 12 11 11 12 16 28 7 3 14 18 16 9 9 -4 5 12 20 24 40 2 -16 14 11 10 21 -1 30 -3 39 17 38 29 8 12 5 9 9 2 11 6 3 8
9 13 16 14 12 12 17 28 12 9 8 14 16 13 23 -4 12 2 8 6 24 29 7 17 5 11 8 11 13 15 27 -8 30 36 -7 0 8 3 -0 4 6 7 6
11 8 8 10 18 12 10 14 23 17 7 15 9 17 17 14 5 12 0 6 5 2 27 33 12 -2 24 1 23 7 13 26 12 39 -0 -4 9 6 13 2 16 -5 2
9 8 8 8 10 16 14 8 10 13 13 15 18 8 7 19 23 13 12 18 -8 12 3 8 18 12 19 16 13 6 10 0 30 23 3 10 5 14 8 16 14 13 -4
9 10 9 9 11 12 14 13 9 8 9 11 22 13 15 2 9 14 14 12 9 10 8 5 8 13 2 7 13 9 20 11 13 6 27 29 26 28 2 8 -2 -17 18
15 13 13 12 12 15 15 20 14 11 9 12 11 17 23 15 6 4 11 15 17 14 9 10 20 9 7 4 9 19 9 12 7 13 13 20 27 10 25 26 18 20 5
13 12 12 14 14 10 12 12 15 18 12 12 9 14 20 29 17 6 1 4 9 12 15 13 5 18 19 10 8 6 15 8 2 4 23 2 -3 9 24 19 15 18 25
14 14 13 12 13 14 12 9 8 8 11 16 14 10 10 13 22 26 17 4 -0 -1 6 7 11 10 16 16 14 10 1 11 9 6 -5 10 18 19 12 6 12 12 20
16 15 14 13 12 14 15 15 13 11 13 15 15 17 15 15 15 16 24 22 14 3 -0 0 2 6 8 9 16 18 14 10 8 8 5 4 2 2 16 9 11 13 13
14 14 13 13 11 12 13 14 16 15 14 16 17 17 16 12 11 14 15 15 23 21 18 5 5 2 4 6 7 7 11 11 12 8 10 10 10 6 5 3 10 4 10
14 14 13 13 12 11 13 15 14 13 18 18 20 22 21 18 14 10 10 15 15 14 17 26 18 5 1 3 2 3 7 10 14 15 12 12 5 8 7 8 6 10 3
13 14 13 14 13 11 11 13 13 13 16 17 22 25 27 32 35 22 13 10 10 15 17 14 12 25 20 21 17 5 1 3 4 5 12 12 22 14 12 15 9 5 8
14 13 13 13 13 12 10 8 12 12 12 17 25 20 17 18 22 30 42 41 30 19 13 13 14 15 14 17 23 26 23 10 5 1 2 3 6 6 12 12 15 17 15
16 12 14 13 12 13 10 8 8 12 10 14 24 19 16 18 18 18 19 21 25 28 31 28 27 26 22 22 18 17 27 32 29 26 16 1 1 1 3 5 7 5 7
15 14 13 12 13 12 13 9 5 9 11 12 20 16 14 12 15 14 15 18 22 18 17 19 20 20 21 22 23 24 24 25 28 31 31 40 39 28 11 6 3 4 5
14 14 14 13 13 14 13 12 7 5 8 10 21 19 12 8 10 12 13 14 13 14 11 11 14 14 13 15 18 18 19 20 19 19 21 22 25 34 41 41 34 15 12
Height
5558 5548 5540 5537 5535 5531 5530 5534 5538 5542 5547 5557 5565 5574 5591 5605 5615 5629 5638 5648 5659 5668 5684 5691 5704 5716 5724 5734 5744 5752 5761 5770 5781 5785 5789 5793 5796 5802 5807 5811 5814 5816 5821
5555 5546 5535 5529 5528 5525 5524 5524 5525 5530 5535 5545 5553 5558 5567 5588 5608 5610 5624 5640 5653 5658 5667 5676 5687 5698 5708 5719 5730 5738 5748 5758 5768 5775 5779 5782 5788 5792 5797 5801 5804 5807 5813
5548 5541 5534 5525 5522 5520 5519 5515 5518 5523 5527 5538 5546 5549 5553 5572 5592 5601 5613 5627 5638 5644 5651 5663 5675 5683 5694 5704 5716 5724 5734 5744 5752 5759 5767 5771 5775 5780 5784 5791 5796 5799 5803
5540 5534 5529 5521 5515 5512 5512 5513 5511 5515 5523 5532 5540 5542 5543 5555 5578 5590 5604 5616 5627 5634 5640 5648 5660 5666 5678 5689 5702 5710 5720 5729 5738 5745 5751 5759 5764 5770 5774 5778 5784 5791 5796
5533 5528 5523 5517 5510 5507 5504 5505 5504 5509 5517 5522 5530 5531 5534 5544 5564 5580 5591 5604 5612 5623 5624 5635 5639 5649 5662 5675 5685 5693 5702 5712 5721 5729 5734 5744 5752 5758 5765 5773 5775 5781 5783
5528 5523 5518 5514 5507 5503 5499 5498 5500 5502 5507 5515 5523 5524 5524 5541 5551 5566 5574 5595 5604 5609 5616 5623 5624 5637 5648 5660 5672 5682 5689 5698 5705 5715 5721 5728 5742 5749 5755 5760 5763 5766 5771
5526 5520 5515 5509 5506 5500 5495 5494 5492 5495 5498 5503 5507 5515 5516 5527 5542 5554 5566 5584 5591 5596 5603 5610 5615 5625 5633 5638 5654 5665 5675 5685 5692 5702 5707 5714 5729 5740 5748 5747 5750 5755 5759
5524 5518 5513 5508 5502 5498 5495 5491 5490 5493 5494 5495 5502 5508 5513 5522 5535 5547 5559 5573 5582 5590 5599 5598 5604 5611 5620 5625 5639 5647 5658 5669 5679 5687 5695 5707 5714 5727 5731 5736 5740 5740 5742
5524 5518 5513 5509 5504 5497 5493 5493 5490 5493 5495 5497 5502 5506 5508 5516 5529 5539 5553 5563 5572 5582 5587 5587 5595 5600 5608 5618 5623 5636 5640 5651 5663 5671 5679 5690 5699 5707 5716 5721 5723 5728 5734
5520 5517 5512 5509 5505 5501 5497 5494 5492 5490 5493 5493 5499 5498 5500 5511 5523 5534 5545 5551 5562 5571 5576 5579 5584 5592 5598 5603 5611 5620 5626 5637 5650 5659 5665 5674 5683 5693 5702 5705 5710 5712 5719
5515 5512 5509 5505 5503 5501 5498 5495 5492 5491 5491 5491 5493 5490 5492 5505 5515 5525 5536 5542 5552 5559 5565 5571 5577 5583 5589 5593 5600 5606 5614 5623 5635 5644 5650 5659 5668 5677 5684 5692 5695 5700 5705
5510 5507 5504 5501 5499 5497 5495 5494 5493 5492 5489 5488 5487 5485 5491 5498 5509 5520 5526 5534 5543 5551 5557 5564 5570 5573 5578 5582 5588 5596 5601 5610 5617 5626 5634 5643 5650 5659 5667 5675 5680 5683 5688
5505 5501 5499 5497 5494 5492 5491 5490 5489 5487 5487 5485 5481 5481 5489 5497 5505 5511 5519 5526 5533 5540 5547 5553 5559 5561 5567 5573 5577 5583 5588 5595 5602 5609 5619 5627 5634 5640 5648 5657 5663 5668 5673
5501 5497 5492 5490 5488 5486 5484 5484 5483 5482 5482 5479 5478 5483 5487 5489 5495 5502 5509 5515 5519 5527 5534 5539 5541 5549 5555 5561 5567 5574 5579 5583 5587 5594 5601 5609 5617 5623 5631 5639 5644 5653 5656
5497 5493 5488 5484 5481 5479 5478 5477 5477 5476 5476 5475 5475 5477 5480 5485 5487 5489 5494 5502 5508 5516 5520 5523 5529 5534 5540 5549 5555 5560 5564 5570 5574 5581 5586 5593 5600 5606 5612 5618 5625 5632 5639
5493 5489 5484 5480 5476 5473 5471 5470 5469 5470 5469 5468 5469 5469 5472 5474 5476 5479 5484 5490 5495 5501 5505 5510 5516 5521 5527 5534 5541 5546 5551 5556 5560 5566 5572 5576 5582 5588 5593 5601 5607 5613 5620
5490 5484 5480 5476 5472 5469 5466 5464 5462 5461 5461 5461 5461 5462 5464 5465 5466 5470 5476 5479 5483 5488 5492 5498 5505 5509 5514 5518 5527 5532 5538 5542 5548 5554 5557 5562 5567 5572 5578 5585 5591 5595 5600
5484 5480 5476 5472 5469 5465 5462 5459 5456 5454 5452 5452 5453 5452 5454 5456 5458 5459 5464 5468 5471 5475 5481 5485 5493 5497 5500 5503 5509 5517 5523 5528 5532 5538 5543 5548 5553 5558 5563 5568 5574 5578 5583
5479 5475 5472 5468 5464 5461 5457 5455 5452 5448 5445 5443 5442 5442 5443 5445 5448 5449 5452 5455 5458 5463 5468 5473 5478 5481 5483 5487 5493 5501 5505 5511 5515 5521 5526 5531 5536 5542 5546 5552 5556 5561 5566
5473 5469 5466 5463 5459 5456 5452 5448 5446 5444 5440 5437 5434 5432 5432 5434 5435 5438 5440 5444 5446 5451 5454 5458 5462 5465 5468 5473 5478 5484 5489 5493 5499 5504 5509 5514 5519 5522 5527 5533 5539 5544 5548
5467 5464 5460 5457 5454 5451 5448 5445 5441 5437 5434 5431 5427 5425 5423 5422 5423 5424 5427 5431 5435 5439 5440 5442 5446 5449 5453 5458 5462 5466 5472 5477 5482 5488 5493 5496 5501 5504 5509 5512 5518 5521 5528
5463 5458 5455 5452 5449 5446 5443 5440 5436 5433 5429 5424 5420 5417 5414 5412 5411 5412 5413 5416 5419 5422 5424 5427 5431 5434 5439 5441 5445 5449 5455 5459 5463 5469 5473 5477 5482 5485 5489 5493 5497 5502 5505
5459 5455 5450 5446 5443 5440 5437 5434 5431 5427 5424 5419 5415 5412 5410 5407 5405 5403 5401 5401 5402 5404 5407 5411 5415 5419 5422 5424 5428 5431 5436 5440 5445 5449 5453 5457 5460 5465 5470 5473 5477 5480 5484
5456 5451 5446 5442 5438 5434 5431 5428 5425 5422 5418 5414 5409 5406 5404 5401 5398 5395 5393 5392 5393 5395 5396 5399 5404 5407 5408 5411 5413 5415 5418 5421 5425 5428 5432 5436 5439 5443 5447 5451 5455 5460 5464
5452 5447 5442 5438 5434 5430 5426 5423 5420 5417 5413 5409 5405 5402 5399 5396 5394 5393 5391 5391 5391 5392 5393 5395 5395 5395 5396 5398 5400 5402 5405 5406 5408 5410 5412 5414 5417 5421 5425 5429 5433 5437 5441
5448 5443 5438 5433 5429 5425 5422 5418 5416 5413 5409 5405 5401 5398 5397 5395 5393 5391 5389 5389 5389 5390 5390 5389 5388 5388 5389 5390 5390 5391 5393 5394 5396 5397 5397 5399 5399 5401 5403 5406 5409 5413 5417